Change the Weather History Date:

Sunday, May 26, 2013

  Actual Average Record
Temperature  
Mean Temperature 81 °F 84 °F  
Max Temperature 94 °F 98 °F 115 °F (1951)
Min Temperature 68 °F 69 °F 50 °F (1916)
Degree Days  
Heating Degree Days 0 0  
Month to date heating degree days 0 0  
Since 1 July heating degree days 705 686  
Cooling Degree Days 16 19  
Month to date cooling degree days 444 408  
Year to date cooling degree days 963 814  
Growing Degree Days 30 (Base 50)    
Moisture  
Dew Point 27 °F    
Average Humidity 19    
Maximum Humidity 32    
Minimum Humidity 6    
Precipitation  
Precipitation 0.00 in 0.00 in 0.01 in (1979)
Month to date precipitation 0.00 0.07  
Year to date precipitation 1.11 1.31  
Sea Level Pressure  
Sea Level Pressure 29.84 in    
Wind  
Wind Speed 5 mph (WSW)    
Max Wind Speed 13 mph    
Max Gust Speed 16 mph    
Visibility 10 miles    
Events      
T = Trace of Precipitation, MM = Missing Value Source: NWS Daily Summary

Daily Weather History Graph

Daily Weather History Graph

Search for Another Location

Airport or City:

Trip Planner

Search our weather history database for the weather conditions in past years. The results will help you decide how hot, cold, wet, or windy it might be!

Date:

Astronomy

May. 26, 2013 Rise Set
Actual Time 5:33 AM MST 7:37 PM MST
Civil Twilight 5:05 AM MST 8:05 PM MST
Nautical Twilight 4:31 AM MST 8:39 PM MST
Astronomical Twilight 3:55 AM MST 9:15 PM MST
Moon 9:30 PM MST (5/26) 7:06 AM MST (5/26)
Length of Visible Light 14h 59m
Length of Day
14h 04m
Waning Gibbous, 96% of the Moon is Illuminated
May 26
Waning Gibbous
May 31
Last Quarter
Jun 8
New
Jun 16
First Quarter
Jun 23
Full

Hourly Weather History & Observations

Time (MST) Temp. Dew Point Humidity Pressure Visibility Wind Dir Wind Speed Gust Speed Precip Events Conditions
12:57 AM 75.9 °F 30.0 °F 19% 29.82 in 10.0 mi SW 3.5 mph - N/A   Partly Cloudy
1:57 AM 75.9 °F 28.9 °F 18% 29.82 in 10.0 mi West 3.5 mph - N/A   Clear
2:57 AM 72.0 °F 30.9 °F 22% 29.81 in 10.0 mi WSW 5.8 mph - N/A   Partly Cloudy
3:57 AM 72.0 °F 33.1 °F 24% 29.81 in 10.0 mi WSW 4.6 mph - N/A   Partly Cloudy
4:57 AM 68.0 °F 37.0 °F 32% 29.83 in 10.0 mi Calm Calm - N/A   Mostly Cloudy
5:57 AM 69.1 °F 36.0 °F 30% 29.84 in 10.0 mi Calm Calm - N/A   Mostly Cloudy
6:57 AM 75.0 °F 33.1 °F 22% 29.87 in 10.0 mi WNW 4.6 mph - N/A   Mostly Cloudy
7:57 AM 78.1 °F 30.0 °F 17% 29.89 in 10.0 mi NW 8.1 mph - N/A   Mostly Cloudy
8:57 AM 80.1 °F 32.0 °F 17% 29.90 in 10.0 mi NW 8.1 mph - N/A   Mostly Cloudy
9:57 AM 82.9 °F 25.0 °F 12% 29.91 in 10.0 mi WNW 6.9 mph - N/A   Mostly Cloudy
10:57 AM 84.9 °F 19.9 °F 9% 29.91 in 10.0 mi WNW 4.6 mph - N/A   Mostly Cloudy
11:57 AM 86.0 °F 19.9 °F 9% 29.90 in 10.0 mi WSW 4.6 mph - N/A   Mostly Cloudy
12:57 PM 89.1 °F 19.9 °F 8% 29.88 in 10.0 mi Variable 4.6 mph - N/A   Mostly Cloudy
1:57 PM 90.0 °F 23.0 °F 9% 29.87 in 10.0 mi ESE 5.8 mph - N/A   Mostly Cloudy
2:57 PM 91.9 °F 21.0 °F 8% 29.84 in 10.0 mi South 8.1 mph - N/A   Mostly Cloudy
3:57 PM 91.9 °F 19.0 °F 7% 29.82 in 10.0 mi Variable 5.8 mph - N/A   Mostly Cloudy
4:57 PM 93.0 °F 16.0 °F 6% 29.80 in 10.0 mi SSE 6.9 mph - N/A   Mostly Cloudy
5:57 PM 93.9 °F 16.0 °F 6% 29.78 in 10.0 mi Calm Calm - N/A   Mostly Cloudy
6:57 PM 93.0 °F 18.0 °F 6% 29.78 in 10.0 mi West 4.6 mph - N/A   Scattered Clouds
7:57 PM 89.1 °F 23.0 °F 9% 29.79 in 10.0 mi West 4.6 mph - N/A   Scattered Clouds
8:57 PM 84.9 °F 34.0 °F 16% 29.82 in 10.0 mi West 9.2 mph - N/A   Scattered Clouds
9:57 PM 80.1 °F 37.0 °F 21% 29.84 in 10.0 mi WSW 6.9 mph - N/A   Mostly Cloudy
10:57 PM 79.0 °F 35.1 °F 20% 29.84 in 10.0 mi WSW 6.9 mph - N/A   Mostly Cloudy
11:57 PM 77.0 °F 33.1 °F 20% 29.84 in 10.0 mi WSW 4.6 mph - N/A   Mostly Cloudy